Location: Unspecified
(0.0000°N, 0.0000°E)
Time: 07:52:41
(UTC+00:00)

Explorer 7 - Pass Details

Date: 09 October 2022
Orbit: 481 x 665 km, 50.3° (Epoch: 26 November)

Event Time Altitude Azimuth Distance (km) Brightness Sun altitude
Rises 04:52:21 0° 206° (SSW) 2,753 10.2 -13.7°
Reaches altitude 10° 04:54:37 10° 200° (SSW) 1,887 9.4 -13.1°
Maximum altitude 04:58:47 46° 126° (SE) 813 8.1 -12.1°
Drops below altitude 10° 05:03:10 10° 53° (NE) 1,990 10.4 -11.0°
Sets 05:05:36 0° 47° (NE) 2,922 11.2 -10.4°
